Stations météo

réclame
Mon MeteoGroup
Ouessant, France (7100): Température de l'air & dewpoint: 17.07.2019 05:00:00 - 23.07.2019 05:00:00 (CEST)Ouessant, France (7100): Vitesse du vent & gusts: 17.07.2019 05:00:00 - 23.07.2019 05:00:00 (CEST)Ouessant, France (7100): Direction du vent: 17.07.2019 05:00:00 - 23.07.2019 05:00:00 (CEST)Ouessant, France (7100): reduced air pressure: 17.07.2019 05:00:00 - 23.07.2019 05:00:00 (CEST)Ouessant, France (7100): visibility: 17.07.2019 05:00:00 - 23.07.2019 05:00:00 (CEST)Ouessant, France (7100): Quantités de précipitations: 17.07.2019 05:00:00 - 23.07.2019 05:00:00 (CEST)
Date & Time tt [°C] td [°C] ff [km/h] ff [knt] fx [km/h] fx [knt] dd ppp [hPa] vv [km] rr [mm]
23.07.2019 05:00:00 14,4 14,4 19 11 31 17 NE 1017,6 0,1 0,0
23.07.2019 04:00:00 14,6 14,6 24 13 29 16 ENE 1018,4 - 0,2
23.07.2019 03:00:00 14,7 14,7 16 9 26 14 NE 1019,4 - 0,0
23.07.2019 02:00:00 15,9 15,9 21 12 28 15 NE 1019,8 0,1 0,0
23.07.2019 01:00:00 15,7 15,7 19 10 25 14 NE 1020,3 - 0,0
23.07.2019 00:00:00 16,2 16,2 19 10 24 13 NE 1020,8 - 0,0
22.07.2019 23:00:00 16,5 16,5 18 10 20 11 NNE 1020,9 0,1 0,0
22.07.2019 22:00:00 17,1 16,6 11 6 14 7 NNE 1021,1 - 0,0
22.07.2019 21:00:00 18,9 17,0 10 5 13 7 NNW 1021,2 - 0,0
22.07.2019 20:00:00 20,0 17,2 12 6 19 11 NNW 1021,3 15 0,0
22.07.2019 19:00:00 20,6 17,2 16 9 25 13 WNW 1021,6 - 0,0
22.07.2019 18:00:00 22,4 15,7 17 9 28 15 WSW 1021,8 - 0,0
22.07.2019 17:00:00 22,1 16,4 18 10 27 14 SW 1022,2 20 0,0
22.07.2019 16:00:00 21,9 17,5 18 10 28 15 SSW 1022,5 - 0,0
22.07.2019 15:00:00 21,8 17,6 14 8 24 13 S 1023,2 - 0,0
22.07.2019 14:00:00 22,0 18,0 14 7 23 12 S 1023,5 18 0,0
22.07.2019 13:00:00 21,6 18,2 12 6 29 15 S 1023,5 - 0,0
22.07.2019 12:00:00 18,7 17,4 - - 26 14 - 1024,1 - 0,0
22.07.2019 11:00:00 17,6 17,4 12 6 19 11 S 1023,9 4,0 0,0
22.07.2019 10:00:00 17,0 17,0 11 6 23 12 S 1023,9 - 0,2
22.07.2019 09:00:00 17,5 17,5 13 7 20 11 S 1023,5 - 0,0
22.07.2019 08:00:00 16,6 16,6 16 8 21 11 SW 1022,9 0,5 0,0
22.07.2019 07:00:00 15,9 15,9 19 10 23 12 SW 1022,6 - 0,0
22.07.2019 06:00:00 15,7 15,7 20 11 24 13 SW 1022,8 - 0,0
22.07.2019 05:00:00 16,0 16,0 20 11 27 15 SSW 1023,2 0,5 0,0
22.07.2019 04:00:00 16,0 16,0 20 11 23 13 SSW 1023,1 - 0,2
22.07.2019 03:00:00 16,0 16,0 21 11 23 13 SSW 1023,5 - 0,0
22.07.2019 02:00:00 16,0 16,0 18 10 23 12 S 1023,8 0,2 0,0
22.07.2019 01:00:00 16,1 16,1 18 10 23 12 SSW 1023,9 - 0,0
22.07.2019 00:00:00 16,1 16,1 18 10 21 12 SSW 1024,0 - 0,0
21.07.2019 23:00:00 16,5 16,5 18 10 25 13 SSW 1023,8 16 0,0
21.07.2019 22:00:00 17,0 16,7 19 10 23 13 SSW 1023,4 - 0,0
21.07.2019 21:00:00 17,7 17,1 17 9 28 15 SSW 1023,2 - 0,0
21.07.2019 20:00:00 19,1 17,4 21 11 29 16 SSW 1022,7 18 0,0
21.07.2019 19:00:00 19,6 17,6 21 12 34 18 SSW 1022,5 - 0,0
21.07.2019 18:00:00 21,0 18,0 24 13 35 19 SSW 1022,4 - 0,0
21.07.2019 17:00:00 20,4 17,8 23 12 37 20 SSW 1022,6 18 0,0
21.07.2019 16:00:00 21,6 18,0 26 14 37 20 S 1022,8 - 0,0
21.07.2019 15:00:00 21,3 17,7 24 13 35 19 S 1022,7 - 0,0
21.07.2019 14:00:00 21,4 17,4 24 13 36 20 S 1022,5 18 0,0
21.07.2019 13:00:00 20,6 17,2 22 12 31 17 SSW 1022,3 - 0,0
21.07.2019 12:00:00 19,6 17,6 21 11 29 16 SSW 1022,3 - 0,0
21.07.2019 11:00:00 19,3 17,3 18 10 24 13 S 1021,7 - 0,0
21.07.2019 10:00:00 18,4 17,6 15 8 21 12 S 1021,4 - 0,0
21.07.2019 09:00:00 17,2 17,2 11 6 16 9 SSW 1021,0 - 0,0
21.07.2019 08:00:00 16,0 16,0 13 7 20 11 SSW 1021,0 6 0,0
21.07.2019 07:00:00 14,9 14,9 18 10 20 11 SSW 1020,5 - 0,2
21.07.2019 06:00:00 15,0 15,0 17 9 19 10 SSW 1019,9 - 0,0
21.07.2019 05:00:00 14,6 14,6 15 8 16 9 SSW 1019,7 0,5 0,0
21.07.2019 04:00:00 14,7 14,7 14 7 15 8 SSW 1019,6 - 0,0
21.07.2019 03:00:00 15,4 15,2 10 5 11 6 SW 1019,7 - 0,0
21.07.2019 02:00:00 15,5 15,2 10 5 11 6 SW 1019,7 20 0,2
21.07.2019 01:00:00 15,7 15,2 10 5 11 6 WSW 1019,3 - 0,0
21.07.2019 00:00:00 15,0 14,5 10 6 14 7 WSW 1019,1 - 0,0
20.07.2019 23:00:00 15,2 14,4 13 7 15 8 W 1018,8 20 0,0
20.07.2019 22:00:00 16,4 15,1 13 7 16 8 W 1017,8 - 0,0
20.07.2019 21:00:00 18,3 15,4 13 7 23 12 W 1017,1 - 0,0
20.07.2019 20:00:00 19,2 15,7 16 9 24 13 W 1016,5 20 0,0
20.07.2019 19:00:00 19,7 16,0 16 9 23 12 WNW 1016,1 - 0,0
20.07.2019 18:00:00 18,8 17,1 15 8 33 18 W 1015,8 - 0,0
20.07.2019 17:00:00 18,9 16,9 24 13 36 20 SW 1015,2 18 0,0
20.07.2019 16:00:00 19,4 17,0 24 13 32 17 W 1014,8 - 0,0
20.07.2019 15:00:00 17,9 17,4 19 11 29 16 WSW 1014,2 - 0,4
20.07.2019 14:00:00 18,2 17,4 24 13 40 22 W 1013,5 - 0,2
20.07.2019 13:00:00 19,7 17,1 27 15 44 24 W 1012,5 - 0,0
20.07.2019 12:00:00 19,3 17,3 29 16 42 23 WSW 1011,9 - 0,0
20.07.2019 11:00:00 19,2 17,3 28 15 44 24 W 1011,4 16 0,0
20.07.2019 10:00:00 18,3 17,1 27 15 38 20 WSW 1011,0 - 0,0
20.07.2019 09:00:00 17,3 16,8 24 13 35 19 WSW 1010,4 - 0,0
20.07.2019 08:00:00 16,6 16,4 23 12 32 17 WSW 1009,7 12 0,0
20.07.2019 07:00:00 15,8 15,8 22 12 31 17 WSW 1009,1 - 0,0
20.07.2019 06:00:00 15,9 15,9 20 11 31 17 W 1008,7 - 0,0
20.07.2019 05:00:00 16,6 16,6 25 14 34 18 W 1008,6 10 0,0
20.07.2019 04:00:00 16,8 16,8 22 12 37 20 WSW 1008,6 - 0,0
20.07.2019 03:00:00 16,5 16,5 27 15 50 27 WSW 1008,7 - 0,0
20.07.2019 02:00:00 17,4 17,4 35 19 53 29 SW 1008,4 0,8 0,2
20.07.2019 01:00:00 17,2 17,2 36 19 54 29 SSW 1008,6 - 0,2
20.07.2019 00:00:00 17,3 17,3 43 23 56 30 SSW 1008,6 - 0,6
19.07.2019 23:00:00 17,2 17,2 33 18 48 26 SSW 1009,3 0,8 0,2
19.07.2019 22:00:00 17,2 17,2 33 18 44 24 SSW 1009,2 - 0,0
19.07.2019 21:00:00 17,4 17,4 31 17 42 23 SSW 1009,6 - 0,4
19.07.2019 20:00:00 17,5 17,5 30 16 41 22 SSW 1010,4 0,2 0,0
19.07.2019 19:00:00 17,7 17,5 26 14 39 21 SSW 1010,9 - 0,0
19.07.2019 18:00:00 18,0 17,7 27 15 40 22 SSW 1011,3 - 0,0
19.07.2019 17:00:00 18,3 18,0 25 14 46 25 SSW 1011,6 0,2 0,0
19.07.2019 16:00:00 18,1 18,1 24 13 41 22 SSW 1012,2 - 0,0
19.07.2019 15:00:00 19,0 17,8 29 16 43 23 SSW 1012,2 - 0,0
19.07.2019 14:00:00 19,2 18,0 32 17 43 23 SSW 1012,2 2,0 0,0
19.07.2019 13:00:00 19,5 18,5 30 16 44 24 SSW 1012,3 - 0,0
19.07.2019 12:00:00 18,1 18,1 27 14 47 26 SSW 1012,5 - 0,2
19.07.2019 11:00:00 18,2 17,9 28 15 48 26 SW 1012,7 4,0 0,0
19.07.2019 10:00:00 18,5 18,5 30 16 46 25 SW 1012,8 - 0,0
19.07.2019 09:00:00 17,2 17,2 34 19 48 26 SSW 1012,6 - 0,0
19.07.2019 08:00:00 16,5 16,5 31 17 47 25 SSW 1012,8 0,8 0,2
19.07.2019 07:00:00 16,7 16,7 33 18 45 24 SSW 1013,0 - 0,0
19.07.2019 06:00:00 16,7 16,4 31 17 42 23 SSW 1013,0 - 0,0
19.07.2019 05:00:00 15,9 15,6 25 13 32 18 SSW 1013,7 20 0,0
19.07.2019 04:00:00 16,0 15,4 24 13 32 17 SSW 1013,9 - 0,0
19.07.2019 03:00:00 15,9 15,1 19 10 24 13 SSW 1014,7 - 0,0
19.07.2019 02:00:00 15,7 14,9 19 10 25 14 SW 1015,0 20 0,0
19.07.2019 01:00:00 15,2 14,6 16 8 23 12 SW 1015,4 - 0,0
19.07.2019 00:00:00 15,3 14,2 16 9 20 11 SW 1015,7 - 0,0
18.07.2019 23:00:00 15,8 14,5 14 8 19 11 SW 1015,9 - 0,0
18.07.2019 22:00:00 16,2 13,7 16 9 22 12 WSW 1015,6 - 0,0
18.07.2019 21:00:00 18,1 14,2 16 9 23 12 W 1015,5 - 0,0
18.07.2019 20:00:00 18,6 14,7 17 9 25 14 W 1015,3 25 0,0
18.07.2019 19:00:00 19,3 15,0 21 11 31 17 W 1015,4 - 0,0
18.07.2019 18:00:00 19,7 14,7 22 12 30 16 W 1015,3 - 0,0
18.07.2019 17:00:00 19,9 14,7 20 11 31 17 W 1015,2 20 0,0
18.07.2019 16:00:00 20,2 15,2 21 11 27 14 WNW 1015,2 - 0,0
18.07.2019 15:00:00 19,0 15,3 20 11 25 14 WNW 1015,2 - 0,0
18.07.2019 14:00:00 20,0 15,4 14 8 24 13 WNW 1015,1 - 0,0
18.07.2019 13:00:00 19,2 15,9 14 8 27 15 NW 1015,1 - 0,0
18.07.2019 12:00:00 18,3 16,1 16 8 26 14 NW 1014,8 - 0,0
18.07.2019 11:00:00 18,2 16,9 13 7 19 10 WNW 1014,4 - 0,0
18.07.2019 10:00:00 17,3 16,2 15 8 29 15 NW 1014,1 - 0,0
18.07.2019 09:00:00 17,3 16,8 18 10 26 14 W 1013,9 - 0,0
18.07.2019 08:00:00 16,6 16,6 18 10 26 14 W 1013,4 8 0,0
18.07.2019 07:00:00 16,5 16,5 23 12 30 16 W 1013,3 - 0,0
18.07.2019 06:00:00 16,4 16,4 19 10 29 16 WSW 1013,1 - 0,2
18.07.2019 05:00:00 16,6 16,6 22 12 39 21 WSW 1013,2 6 0,0
18.07.2019 04:00:00 16,7 16,7 28 15 40 21 WSW 1013,5 - 0,2
18.07.2019 03:00:00 16,6 16,6 27 15 40 21 SW 1014,2 - 0,0
18.07.2019 02:00:00 16,6 16,4 26 14 35 19 SW 1014,6 8 0,0
18.07.2019 01:00:00 16,6 16,0 23 12 31 17 SW 1015,0 - 0,0
18.07.2019 00:00:00 15,7 15,2 19 11 27 15 SW 1015,5 - 0,0
17.07.2019 23:00:00 15,9 14,9 20 11 29 15 WSW 1015,9 - 0,0
17.07.2019 22:00:00 16,5 14,9 18 10 28 15 WSW 1015,7 - 0,0
17.07.2019 21:00:00 17,8 14,9 20 11 32 17 WSW 1015,6 - 0,0
17.07.2019 20:00:00 18,6 14,7 23 12 34 19 W 1015,8 18 0,0
17.07.2019 19:00:00 19,3 15,0 25 14 36 19 W 1016,2 - 0,0
17.07.2019 18:00:00 19,8 15,2 25 13 36 20 W 1016,4 - 0,0
17.07.2019 17:00:00 20,2 15,6 26 14 34 18 WNW 1016,5 15 0,0
17.07.2019 16:00:00 19,9 15,3 22 12 30 16 WNW 1016,8 - 0,0
17.07.2019 15:00:00 19,8 15,2 21 12 31 17 WNW 1017,1 - 0,0
17.07.2019 14:00:00 20,5 15,7 20 11 30 16 WNW 1017,2 15 0,0
17.07.2019 13:00:00 19,7 15,6 20 11 27 14 W 1017,2 - 0,0
17.07.2019 12:00:00 19,0 15,5 17 9 24 13 W 1017,2 - 0,0
17.07.2019 11:00:00 18,3 14,4 11 6 16 9 WNW 1017,2 10 0,2
17.07.2019 10:00:00 17,2 14,8 10 5 16 9 WNW 1017,1 - 0,0
17.07.2019 09:00:00 16,3 15,3 3 2 11 6 NNW 1017,0 - 0,0
17.07.2019 08:00:00 14,3 14,1 8 4 10 6 NNW 1016,9 8 0,0
17.07.2019 07:00:00 14,0 13,8 8 4 9 5 NW 1016,9 - 0,0
17.07.2019 06:00:00 13,5 13,3 6 4 11 6 E 1016,8 - 0,0
17.07.2019 05:00:00 14,1 14,1 9 5 11 6 W 1017,0 - 0,0

tt = Température de l'air
td = dewpoint
ff = Vitesse du vent
fx = gusts
dd = Direction du vent
ppp = reduced air pressure
vv = visibility
rr = Quantités de précipitations

stations d'obs. à proximité